Time,TemperatureF,DewpointF,PressureIn,WindDirection,WindDirectionDegrees,WindSpeedMPH,WindSpeedGustMPH,Humidity,HourlyPrecipIn,Conditions,Clouds,dailyrainin,SoftwareType,DateUTC
2013-07-04 00:00:00,72.5,65.6,30.08,SSE,157,0.0,0.0,79,0.00,,,-99.99,open2300 version1.11,2013-07-04 04:00:00,
2013-07-04 00:05:00,72.5,66.0,30.09,SSE,157,0.0,0.0,80,0.00,,,-99.99,open2300 version1.11,2013-07-04 04:05:00,
2013-07-04 00:10:00,72.5,66.0,30.09,SSE,157,0.0,0.0,80,0.00,,,-99.99,open2300 version1.11,2013-07-04 04:10:00,
2013-07-04 00:15:00,72.3,65.8,30.09,SSE,157,0.0,0.0,80,0.00,,,-99.99,open2300 version1.11,2013-07-04 04:15:00,
2013-07-04 00:20:00,72.3,65.8,30.09,SSE,157,0.0,0.0,80,0.00,,,-99.99,open2300 version1.11,2013-07-04 04:20:00,
2013-07-04 00:25:00,72.3,66.2,30.09,SSE,157,0.0,0.0,81,0.00,,,-99.99,open2300 version1.11,2013-07-04 04:25:00,
2013-07-04 00:30:00,72.1,66.0,30.09,SSE,157,0.0,0.0,81,0.00,,,-99.99,open2300 version1.11,2013-07-04 04:30:00,
2013-07-04 00:35:00,72.1,66.0,30.09,SSE,157,0.0,0.0,81,0.00,,,-99.99,open2300 version1.11,2013-07-04 04:35:00,
2013-07-04 00:40:00,72.1,66.0,30.09,SSE,157,0.0,0.0,81,0.00,,,-99.99,open2300 version1.11,2013-07-04 04:40:00,
2013-07-04 00:45:00,72.0,65.8,30.09,SSE,157,0.0,0.0,81,0.00,,,-99.99,open2300 version1.11,2013-07-04 04:45:00,
2013-07-04 00:50:00,72.0,65.8,30.08,SSE,157,0.0,0.0,81,0.00,,,-99.99,open2300 version1.11,2013-07-04 04:50:00,
2013-07-04 00:55:00,71.8,66.0,30.09,SSE,157,0.0,0.0,82,0.00,,,-99.99,open2300 version1.11,2013-07-04 04:55:00,
2013-07-04 01:05:00,71.6,65.8,30.09,SSE,157,0.0,0.0,82,0.00,,,-99.99,open2300 version1.11,2013-07-04 05:05:00,
2013-07-04 01:10:00,71.4,65.6,30.09,SSE,157,0.0,0.0,82,0.00,,,-99.99,open2300 version1.11,2013-07-04 05:10:00,
2013-07-04 01:15:00,71.4,65.6,30.09,SSE,157,0.0,0.0,82,0.00,,,-99.99,open2300 version1.11,2013-07-04 05:15:00,
2013-07-04 01:20:00,71.2,65.8,30.08,SSE,157,0.0,0.0,83,0.00,,,-99.99,open2300 version1.11,2013-07-04 05:20:00,
2013-07-04 01:25:00,71.2,65.8,30.09,SSE,157,0.0,0.0,83,0.00,,,-99.99,open2300 version1.11,2013-07-04 05:25:00,
2013-07-04 01:30:00,71.1,65.6,30.08,SSE,157,0.0,0.0,83,0.00,,,-99.99,open2300 version1.11,2013-07-04 05:30:00,
2013-07-04 01:35:00,70.9,65.4,30.08,SSE,157,0.0,0.0,83,0.00,,,-99.99,open2300 version1.11,2013-07-04 05:35:00,
2013-07-04 01:40:00,70.9,65.4,30.08,SSE,157,0.0,0.0,83,0.00,,,-99.99,open2300 version1.11,2013-07-04 05:40:00,
2013-07-04 01:45:00,70.7,65.2,30.08,SSE,157,0.0,0.0,83,0.00,,,-99.99,open2300 version1.11,2013-07-04 05:45:00,
2013-07-04 01:50:00,70.5,65.4,30.08,SSE,157,0.0,0.0,84,0.00,,,-99.99,open2300 version1.11,2013-07-04 05:50:00,
2013-07-04 01:55:00,70.3,65.2,30.08,SSE,157,0.0,0.0,84,0.00,,,-99.99,open2300 version1.11,2013-07-04 05:55:00,
2013-07-04 02:00:00,70.3,65.2,30.08,SSE,157,0.0,0.0,84,0.00,,,-99.99,open2300 version1.11,2013-07-04 06:00:00,
2013-07-04 02:05:00,70.2,65.0,30.08,SSE,157,0.0,0.0,84,0.00,,,-99.99,open2300 version1.11,2013-07-04 06:05:00,
2013-07-04 02:10:00,70.2,65.0,30.08,SSE,157,0.0,0.0,84,0.00,,,-99.99,open2300 version1.11,2013-07-04 06:10:00,
2013-07-04 02:15:00,70.0,64.9,30.08,SSE,157,0.0,0.0,84,0.00,,,-99.99,open2300 version1.11,2013-07-04 06:15:00,
2013-07-04 02:20:00,70.0,64.9,30.07,SSE,157,0.0,0.0,84,0.00,,,-99.99,open2300 version1.11,2013-07-04 06:20:00,
2013-07-04 02:25:00,69.8,65.0,30.08,SSE,157,0.0,0.0,85,0.00,,,-99.99,open2300 version1.11,2013-07-04 06:25:00,
2013-07-04 02:30:00,69.6,64.8,30.08,SSE,157,0.0,0.0,85,0.00,,,-99.99,open2300 version1.11,2013-07-04 06:30:00,
2013-07-04 02:35:00,69.8,65.0,30.07,SSE,157,0.0,0.0,85,0.00,,,-99.99,open2300 version1.11,2013-07-04 06:35:00,
2013-07-04 02:40:00,69.6,64.8,30.08,SSE,157,0.0,0.0,85,0.00,,,-99.99,open2300 version1.11,2013-07-04 06:40:00,
2013-07-04 02:45:00,69.6,64.8,30.08,SSE,157,0.0,0.0,85,0.00,,,-99.99,open2300 version1.11,2013-07-04 06:45:00,
2013-07-04 02:50:00,69.6,64.8,30.08,SSE,157,0.0,0.0,85,0.00,,,-99.99,open2300 version1.11,2013-07-04 06:50:00,
2013-07-04 02:55:00,69.6,65.2,30.08,SSE,157,0.0,0.0,86,0.00,,,-99.99,open2300 version1.11,2013-07-04 06:55:00,
2013-07-04 03:00:00,69.4,65.0,30.08,SSE,157,0.0,0.0,86,0.00,,,-99.99,open2300 version1.11,2013-07-04 07:00:00,
2013-07-04 03:05:00,69.4,65.0,30.08,SSE,157,0.0,0.0,86,0.00,,,-99.99,open2300 version1.11,2013-07-04 07:05:00,
2013-07-04 03:10:00,69.3,64.8,30.08,SSE,157,0.0,0.0,86,0.00,,,-99.99,open2300 version1.11,2013-07-04 07:10:00,
2013-07-04 03:15:00,69.1,64.7,30.08,SSE,157,0.0,0.0,86,0.00,,,-99.99,open2300 version1.11,2013-07-04 07:15:00,
2013-07-04 03:20:00,69.1,64.7,30.08,SSE,157,0.0,0.0,86,0.00,,,-99.99,open2300 version1.11,2013-07-04 07:20:00,
2013-07-04 03:25:00,69.1,64.7,30.08,SSE,157,0.0,0.0,86,0.00,,,-99.99,open2300 version1.11,2013-07-04 07:25:00,
2013-07-04 03:30:00,69.1,64.7,30.08,SSE,157,0.0,0.0,86,0.00,,,-99.99,open2300 version1.11,2013-07-04 07:30:00,
2013-07-04 03:35:00,68.9,64.5,30.08,SSE,157,0.0,0.0,86,0.00,,,-99.99,open2300 version1.11,2013-07-04 07:35:00,
2013-07-04 03:40:00,68.9,64.5,30.08,SSE,157,0.0,0.0,86,0.00,,,-99.99,open2300 version1.11,2013-07-04 07:40:00,
2013-07-04 03:45:00,68.7,64.3,30.08,SSE,157,0.0,0.0,86,0.00,,,-99.99,open2300 version1.11,2013-07-04 07:45:00,
2013-07-04 03:50:00,68.7,64.3,30.08,SSE,157,0.0,0.0,86,0.00,,,-99.99,open2300 version1.11,2013-07-04 07:50:00,
2013-07-04 03:55:00,68.7,64.7,30.08,SSE,157,0.0,0.0,87,0.00,,,-99.99,open2300 version1.11,2013-07-04 07:55:00,
2013-07-04 04:00:00,68.7,64.7,30.08,SSE,157,0.0,0.0,87,0.00,,,-99.99,open2300 version1.11,2013-07-04 08:00:00,
2013-07-04 04:05:00,68.9,64.8,30.08,SSE,157,0.0,0.0,87,0.00,,,-99.99,open2300 version1.11,2013-07-04 08:05:00,
2013-07-04 04:10:00,68.9,64.8,30.08,SSE,157,0.0,0.0,87,0.00,,,-99.99,open2300 version1.11,2013-07-04 08:10:00,
2013-07-04 04:15:00,68.9,64.8,30.08,SSE,157,0.0,0.0,87,0.00,,,-99.99,open2300 version1.11,2013-07-04 08:15:00,
2013-07-04 04:20:00,68.9,64.8,30.08,SSE,157,0.0,0.0,87,0.00,,,-99.99,open2300 version1.11,2013-07-04 08:20:00,
2013-07-04 04:25:00,68.9,64.8,30.08,SSE,157,0.0,0.0,87,0.00,,,-99.99,open2300 version1.11,2013-07-04 08:25:00,
2013-07-04 04:30:00,68.9,64.8,30.08,SSE,157,0.0,0.0,87,0.00,,,-99.99,open2300 version1.11,2013-07-04 08:30:00,
2013-07-04 04:35:00,68.9,64.8,30.08,SSE,157,0.0,0.0,87,0.00,,,-99.99,open2300 version1.11,2013-07-04 08:35:00,
2013-07-04 04:40:00,68.7,64.7,30.08,SSE,157,0.0,0.0,87,0.00,,,-99.99,open2300 version1.11,2013-07-04 08:40:00,
2013-07-04 04:45:00,68.7,64.7,30.08,SSE,157,0.0,0.0,87,0.00,,,-99.99,open2300 version1.11,2013-07-04 08:45:00,
2013-07-04 04:50:00,68.7,64.7,30.08,SSE,157,0.0,0.0,87,0.00,,,-99.99,open2300 version1.11,2013-07-04 08:50:00,
2013-07-04 04:55:00,68.7,64.7,30.08,SSE,157,0.0,0.0,87,0.00,,,-99.99,open2300 version1.11,2013-07-04 08:55:00,
2013-07-04 05:00:00,68.7,65.0,30.08,SSE,157,0.0,0.0,88,0.00,,,-99.99,open2300 version1.11,2013-07-04 09:00:00,
2013-07-04 05:05:00,68.7,64.7,30.08,SSE,157,0.0,0.0,87,0.00,,,-99.99,open2300 version1.11,2013-07-04 09:05:00,
2013-07-04 05:10:00,68.7,65.0,30.08,SSE,157,0.0,0.0,88,0.00,,,-99.99,open2300 version1.11,2013-07-04 09:10:00,
2013-07-04 05:15:00,68.7,65.0,30.08,SSE,157,0.0,0.0,88,0.00,,,-99.99,open2300 version1.11,2013-07-04 09:15:00,
2013-07-04 05:20:00,68.7,64.7,30.08,SSE,157,0.0,0.0,87,0.00,,,-99.99,open2300 version1.11,2013-07-04 09:20:00,
2013-07-04 05:25:00,68.5,64.8,30.08,SSE,157,0.0,0.0,88,0.00,,,-99.99,open2300 version1.11,2013-07-04 09:25:00,
2013-07-04 05:30:00,68.5,64.8,30.09,SSE,157,0.0,0.0,88,0.00,,,-99.99,open2300 version1.11,2013-07-04 09:30:00,
2013-07-04 05:35:00,68.5,64.8,30.08,SSE,157,0.0,0.0,88,0.00,,,-99.99,open2300 version1.11,2013-07-04 09:35:00,
2013-07-04 05:40:00,68.4,64.6,30.08,SSE,157,0.0,0.0,88,0.00,,,-99.99,open2300 version1.11,2013-07-04 09:40:00,
2013-07-04 05:45:00,68.4,64.6,30.09,SSE,157,0.0,0.0,88,0.00,,,-99.99,open2300 version1.11,2013-07-04 09:45:00,
2013-07-04 05:50:00,68.4,64.6,30.09,SSE,157,0.0,0.0,88,0.00,,,-99.99,open2300 version1.11,2013-07-04 09:50:00,
2013-07-04 05:55:00,68.2,64.5,30.09,SSE,157,0.0,0.0,88,0.00,,,-99.99,open2300 version1.11,2013-07-04 09:55:00,
2013-07-04 06:00:00,68.2,64.5,30.09,SSE,157,0.0,0.0,88,0.00,,,-99.99,open2300 version1.11,2013-07-04 10:00:00,
2013-07-04 06:05:00,68.2,64.5,30.09,SSE,157,0.0,0.0,88,0.00,,,-99.99,open2300 version1.11,2013-07-04 10:05:00,
2013-07-04 06:10:00,68.2,64.5,30.10,SSE,157,0.0,0.0,88,0.00,,,-99.99,open2300 version1.11,2013-07-04 10:10:00,
2013-07-04 06:15:00,68.2,64.5,30.09,SSE,157,0.0,0.0,88,0.00,,,-99.99,open2300 version1.11,2013-07-04 10:15:00,
2013-07-04 06:20:00,68.2,64.5,30.10,SSE,157,0.0,0.0,88,0.00,,,-99.99,open2300 version1.11,2013-07-04 10:20:00,
2013-07-04 06:25:00,68.2,64.5,30.11,SSE,157,0.0,0.0,88,0.00,,,-99.99,open2300 version1.11,2013-07-04 10:25:00,
2013-07-04 06:30:00,68.2,64.5,30.11,SSE,157,0.0,0.0,88,0.00,,,-99.99,open2300 version1.11,2013-07-04 10:30:00,
2013-07-04 06:35:00,68.2,64.5,30.11,SSE,157,0.0,0.0,88,0.00,,,-99.99,open2300 version1.11,2013-07-04 10:35:00,
2013-07-04 06:40:00,68.2,64.5,30.10,SSE,157,0.1,2.0,88,0.00,,,-99.99,open2300 version1.11,2013-07-04 10:40:00,
2013-07-04 06:45:00,68.2,64.5,30.11,SSE,157,0.0,0.0,88,0.00,,,-99.99,open2300 version1.11,2013-07-04 10:45:00,
2013-07-04 06:50:00,68.2,64.5,30.11,SSE,157,0.0,0.0,88,0.00,,,-99.99,open2300 version1.11,2013-07-04 10:50:00,
2013-07-04 06:55:00,68.4,64.6,30.11,SSE,157,0.0,0.0,88,0.00,,,-99.99,open2300 version1.11,2013-07-04 10:55:00,
2013-07-04 07:00:00,68.4,64.6,30.11,SSE,157,0.0,0.0,88,0.00,,,-99.99,open2300 version1.11,2013-07-04 11:00:00,
2013-07-04 07:05:00,68.5,64.8,30.11,SSE,157,0.1,1.6,88,0.00,,,-99.99,open2300 version1.11,2013-07-04 11:05:00,
2013-07-04 07:10:00,68.5,64.8,30.11,SSE,157,0.1,1.6,88,0.00,,,-99.99,open2300 version1.11,2013-07-04 11:10:00,
2013-07-04 07:15:00,68.7,65.0,30.11,SSE,157,0.1,1.1,88,0.00,,,-99.99,open2300 version1.11,2013-07-04 11:15:00,
2013-07-04 07:20:00,68.7,65.0,30.11,SSE,157,0.0,0.0,88,0.00,,,-99.99,open2300 version1.11,2013-07-04 11:20:00,
2013-07-04 07:25:00,68.7,65.0,30.11,SSE,157,0.0,0.0,88,0.00,,,-99.99,open2300 version1.11,2013-07-04 11:25:00,
2013-07-04 07:30:00,68.9,65.2,30.11,SSE,157,0.0,1.1,88,0.00,,,-99.99,open2300 version1.11,2013-07-04 11:30:00,
2013-07-04 07:35:00,69.1,65.3,30.11,SSE,157,0.1,1.8,88,0.00,,,-99.99,open2300 version1.11,2013-07-04 11:35:00,
2013-07-04 07:40:00,69.4,65.7,30.11,SSE,157,0.0,0.7,88,0.00,,,-99.99,open2300 version1.11,2013-07-04 11:40:00,
2013-07-04 07:45:00,69.4,65.7,30.11,SSE,157,0.1,1.3,88,0.00,,,-99.99,open2300 version1.11,2013-07-04 11:45:00,
2013-07-04 07:50:00,69.8,66.1,30.11,SSE,157,0.3,2.5,88,0.00,,,-99.99,open2300 version1.11,2013-07-04 11:50:00,
2013-07-04 07:55:00,69.8,65.7,30.11,SSE,157,0.1,1.3,87,0.00,,,-99.99,open2300 version1.11,2013-07-04 11:55:00,
2013-07-04 08:00:00,70.0,65.9,30.11,SSE,157,0.0,0.7,87,0.00,,,-99.99,open2300 version1.11,2013-07-04 12:00:00,
2013-07-04 08:05:00,70.2,66.1,30.12,SSE,157,0.4,2.2,87,0.00,,,-99.99,open2300 version1.11,2013-07-04 12:05:00,
2013-07-04 08:10:00,70.3,65.9,30.12,SSE,157,0.0,0.0,86,0.00,,,-99.99,open2300 version1.11,2013-07-04 12:10:00,
2013-07-04 08:15:00,70.3,65.9,30.12,SSE,157,0.0,0.0,86,0.00,,,-99.99,open2300 version1.11,2013-07-04 12:15:00,
2013-07-04 08:20:00,70.5,66.4,30.12,SSE,157,0.0,0.0,87,0.00,,,-99.99,open2300 version1.11,2013-07-04 12:20:00,
2013-07-04 08:25:00,70.7,66.6,30.12,SSE,157,0.0,0.0,87,0.00,,,-99.99,open2300 version1.11,2013-07-04 12:25:00,
2013-07-04 08:30:00,70.9,66.8,30.12,SSE,157,0.0,0.0,87,0.00,,,-99.99,open2300 version1.11,2013-07-04 12:30:00,
2013-07-04 08:35:00,71.2,66.8,30.12,SSE,157,0.0,0.7,86,0.00,,,-99.99,open2300 version1.11,2013-07-04 12:35:00,
2013-07-04 08:40:00,71.4,67.0,30.13,SSE,157,0.0,0.0,86,0.00,,,-99.99,open2300 version1.11,2013-07-04 12:40:00,
2013-07-04 08:45:00,71.4,66.7,30.13,SSE,157,0.0,0.0,85,0.00,,,-99.99,open2300 version1.11,2013-07-04 12:45:00,
2013-07-04 08:50:00,71.8,67.0,30.12,SSE,157,0.1,2.5,85,0.00,,,-99.99,open2300 version1.11,2013-07-04 12:50:00,
2013-07-04 08:55:00,72.1,67.4,30.13,SSE,157,0.0,0.0,85,0.00,,,-99.99,open2300 version1.11,2013-07-04 12:55:00,
2013-07-04 09:00:00,72.3,67.2,30.13,SSE,157,0.0,0.0,84,0.00,,,-99.99,open2300 version1.11,2013-07-04 13:00:00,
2013-07-04 09:05:00,72.5,67.4,30.13,SSE,157,0.0,0.0,84,0.00,,,-99.99,open2300 version1.11,2013-07-04 13:05:00,
2013-07-04 09:10:00,72.7,67.6,30.13,SSE,157,0.0,0.0,84,0.00,,,-99.99,open2300 version1.11,2013-07-04 13:10:00,
2013-07-04 09:15:00,73.0,67.6,30.13,South,180,0.1,1.8,83,0.00,,,-99.99,open2300 version1.11,2013-07-04 13:15:00,
2013-07-04 09:20:00,73.0,67.2,30.13,South,180,0.2,1.3,82,0.00,,,-99.99,open2300 version1.11,2013-07-04 13:20:00,
2013-07-04 09:25:00,73.2,67.4,30.13,South,180,0.4,1.6,82,0.00,,,-99.99,open2300 version1.11,2013-07-04 13:25:00,
2013-07-04 09:30:00,73.6,67.4,30.13,South,180,0.2,1.6,81,0.00,,,-99.99,open2300 version1.11,2013-07-04 13:30:00,
2013-07-04 09:35:00,73.4,67.3,30.13,South,180,0.1,1.6,81,0.00,,,-99.99,open2300 version1.11,2013-07-04 13:35:00,
2013-07-04 09:40:00,73.6,67.1,30.13,South,180,0.1,0.9,80,0.00,,,-99.99,open2300 version1.11,2013-07-04 13:40:00,
2013-07-04 09:45:00,73.8,67.3,30.13,SSW,192,0.5,2.9,80,0.00,,,-99.99,open2300 version1.11,2013-07-04 13:45:00,
2013-07-04 09:50:00,73.8,67.3,30.14,SSW,202,0.7,2.2,80,0.00,,,-99.99,open2300 version1.11,2013-07-04 13:50:00,
2013-07-04 09:55:00,73.9,67.5,30.13,SSW,202,0.5,2.7,80,0.00,,,-99.99,open2300 version1.11,2013-07-04 13:55:00,
2013-07-04 10:00:00,73.9,67.5,30.14,SSW,202,0.7,2.7,80,0.00,,,-99.99,open2300 version1.11,2013-07-04 14:00:00,
2013-07-04 10:05:00,73.9,67.1,30.13,SSW,202,1.2,2.9,79,0.00,,,-99.99,open2300 version1.11,2013-07-04 14:05:00,
2013-07-04 10:10:00,74.1,67.2,30.13,SSW,202,0.8,2.2,79,0.00,,,-99.99,open2300 version1.11,2013-07-04 14:10:00,
2013-07-04 10:15:00,74.1,66.9,30.13,SSW,202,0.2,1.3,78,0.00,,,-99.99,open2300 version1.11,2013-07-04 14:15:00,
2013-07-04 10:20:00,74.5,67.2,30.13,SSW,202,0.3,2.0,78,0.00,,,-99.99,open2300 version1.11,2013-07-04 14:20:00,
2013-07-04 10:25:00,74.5,67.2,30.13,SSW,202,0.4,2.5,78,0.00,,,-99.99,open2300 version1.11,2013-07-04 14:25:00,
2013-07-04 10:30:00,74.8,67.6,30.13,SSW,202,0.1,2.0,78,0.00,,,-99.99,open2300 version1.11,2013-07-04 14:30:00,
2013-07-04 10:35:00,75.0,67.3,30.13,SSW,202,0.4,2.5,77,0.00,,,-99.99,open2300 version1.11,2013-07-04 14:35:00,
2013-07-04 10:40:00,75.4,67.7,30.13,SSW,202,0.7,2.5,77,0.00,,,-99.99,open2300 version1.11,2013-07-04 14:40:00,
2013-07-04 10:45:00,75.4,67.3,30.13,SSW,202,0.4,2.0,76,0.00,,,-99.99,open2300 version1.11,2013-07-04 14:45:00,
2013-07-04 10:50:00,75.7,67.6,30.13,SSW,202,0.6,2.9,76,0.00,,,-99.99,open2300 version1.11,2013-07-04 14:50:00,
2013-07-04 10:55:00,76.1,67.6,30.13,SSW,202,0.7,2.5,75,0.00,,,-99.99,open2300 version1.11,2013-07-04 14:55:00,
2013-07-04 11:00:00,76.5,67.5,30.13,SSW,202,0.3,2.0,74,0.00,,,-99.99,open2300 version1.11,2013-07-04 15:00:00,
2013-07-04 11:05:00,76.6,67.3,30.13,SSW,202,0.4,2.0,73,0.00,,,-99.99,open2300 version1.11,2013-07-04 15:05:00,
2013-07-04 11:10:00,76.8,67.5,30.13,SSW,202,0.4,1.8,73,0.00,,,-99.99,open2300 version1.11,2013-07-04 15:10:00,
2013-07-04 11:15:00,76.8,67.5,30.13,SSW,202,0.1,1.1,73,0.00,,,-99.99,open2300 version1.11,2013-07-04 15:15:00,
2013-07-04 11:20:00,76.6,67.3,30.13,SSW,202,0.3,2.2,73,0.00,,,-99.99,open2300 version1.11,2013-07-04 15:20:00,
2013-07-04 11:25:00,76.6,67.0,30.12,SSW,202,0.1,1.6,72,0.00,,,-99.99,open2300 version1.11,2013-07-04 15:25:00,
2013-07-04 11:30:00,76.6,67.0,30.12,SSW,202,0.5,2.0,72,0.00,,,-99.99,open2300 version1.11,2013-07-04 15:30:00,
2013-07-04 11:35:00,76.5,66.8,30.13,SSW,202,0.4,2.0,72,0.00,,,-99.99,open2300 version1.11,2013-07-04 15:35:00,
2013-07-04 11:40:00,76.5,66.8,30.13,SSW,202,0.6,2.5,72,0.00,,,-99.99,open2300 version1.11,2013-07-04 15:40:00,
2013-07-04 11:45:00,76.5,66.8,30.13,SSW,202,0.3,1.6,72,0.00,,,-99.99,open2300 version1.11,2013-07-04 15:45:00,
2013-07-04 11:50:00,76.3,67.0,30.13,SSW,202,0.7,2.2,73,0.00,,,-99.99,open2300 version1.11,2013-07-04 15:50:00,
2013-07-04 11:55:00,76.3,66.6,30.12,SSW,207,1.2,3.8,72,0.00,,,-99.99,open2300 version1.11,2013-07-04 15:55:00,
2013-07-04 12:00:00,76.6,66.6,30.13,SW,225,0.4,2.0,71,0.00,,,-99.99,open2300 version1.11,2013-07-04 16:00:00,
2013-07-04 12:05:00,76.8,66.8,30.13,SW,225,0.8,3.4,71,0.00,,,-99.99,open2300 version1.11,2013-07-04 16:05:00,
2013-07-04 12:10:00,77.2,66.7,30.13,SSW,208,0.3,4.2,70,0.00,,,-99.99,open2300 version1.11,2013-07-04 16:10:00,
2013-07-04 12:15:00,77.4,66.9,30.13,South,184,0.7,2.9,70,0.00,,,-99.99,open2300 version1.11,2013-07-04 16:15:00,
2013-07-04 12:20:00,77.5,66.6,30.13,SW,225,0.5,3.4,69,0.00,,,-99.99,open2300 version1.11,2013-07-04 16:20:00,
2013-07-04 12:25:00,77.5,66.6,30.13,SSW,207,0.5,2.5,69,0.00,,,-99.99,open2300 version1.11,2013-07-04 16:25:00,
2013-07-04 12:30:00,77.5,67.0,30.13,SSW,196,0.3,1.3,70,0.00,,,-99.99,open2300 version1.11,2013-07-04 16:30:00,
2013-07-04 12:35:00,77.7,67.2,30.13,SSE,157,0.0,0.7,70,0.00,,,-99.99,open2300 version1.11,2013-07-04 16:35:00,
2013-07-04 12:40:00,77.7,67.2,30.13,SSW,199,0.9,3.6,70,0.00,,,-99.99,open2300 version1.11,2013-07-04 16:40:00,
2013-07-04 12:45:00,77.9,66.9,30.13,SSW,203,0.9,2.9,69,0.00,,,-99.99,open2300 version1.11,2013-07-04 16:45:00,
2013-07-04 12:50:00,78.1,67.1,30.13,SW,221,1.9,5.1,69,0.00,,,-99.99,open2300 version1.11,2013-07-04 16:50:00,
2013-07-04 12:55:00,78.1,66.7,30.13,SW,225,1.0,4.2,68,0.00,,,-99.99,open2300 version1.11,2013-07-04 16:55:00,
2013-07-04 13:00:00,78.4,67.0,30.13,SSW,210,1.3,5.1,68,0.00,,,-99.99,open2300 version1.11,2013-07-04 17:00:00,
2013-07-04 13:05:00,78.6,66.7,30.13,South,180,0.7,2.9,67,0.00,,,-99.99,open2300 version1.11,2013-07-04 17:05:00,
2013-07-04 13:10:00,78.6,66.7,30.13,South,173,0.2,1.8,67,0.00,,,-99.99,open2300 version1.11,2013-07-04 17:10:00,
2013-07-04 13:15:00,78.8,66.9,30.13,SSW,205,0.3,3.8,67,0.00,,,-99.99,open2300 version1.11,2013-07-04 17:15:00,
2013-07-04 13:20:00,79.0,66.6,30.13,SW,225,0.3,3.1,66,0.00,,,-99.99,open2300 version1.11,2013-07-04 17:20:00,
2013-07-04 13:25:00,79.0,67.0,30.13,SW,225,0.2,2.0,67,0.00,,,-99.99,open2300 version1.11,2013-07-04 17:25:00,
2013-07-04 13:30:00,79.2,66.8,30.12,South,175,0.7,6.5,66,0.00,,,-99.99,open2300 version1.11,2013-07-04 17:30:00,
2013-07-04 13:35:00,79.3,67.0,30.13,South,172,0.2,2.9,66,0.00,,,-99.99,open2300 version1.11,2013-07-04 17:35:00,
2013-07-04 13:40:00,79.7,67.3,30.13,South,187,0.8,3.6,66,0.00,,,-99.99,open2300 version1.11,2013-07-04 17:40:00,
2013-07-04 13:45:00,79.9,67.0,30.13,South,180,0.4,2.0,65,0.00,,,-99.99,open2300 version1.11,2013-07-04 17:45:00,
2013-07-04 13:50:00,79.7,66.4,30.13,South,180,0.4,1.3,64,0.00,,,-99.99,open2300 version1.11,2013-07-04 17:50:00,
2013-07-04 13:55:00,79.7,66.4,30.13,South,180,0.3,2.5,64,0.00,,,-99.99,open2300 version1.11,2013-07-04 17:55:00,
2013-07-04 14:00:00,79.7,66.4,30.13,South,173,0.4,3.4,64,0.00,,,-99.99,open2300 version1.11,2013-07-04 18:00:00,
2013-07-04 14:05:00,79.7,66.4,30.13,SSE,157,0.0,0.5,64,0.00,,,-99.99,open2300 version1.11,2013-07-04 18:05:00,
2013-07-04 14:10:00,79.5,66.2,30.12,SSE,157,0.0,0.0,64,0.00,,,-99.99,open2300 version1.11,2013-07-04 18:10:00,
2013-07-04 14:15:00,79.3,66.5,30.12,SSE,157,0.0,0.0,65,0.00,,,-99.99,open2300 version1.11,2013-07-04 18:15:00,
2013-07-04 14:20:00,79.3,66.1,30.12,SSE,157,0.1,1.6,64,0.00,,,-99.99,open2300 version1.11,2013-07-04 18:20:00,
2013-07-04 14:25:00,79.0,65.8,30.12,SSE,157,0.0,0.0,64,0.00,,,-99.99,open2300 version1.11,2013-07-04 18:25:00,
2013-07-04 14:30:00,78.8,66.0,30.12,SSE,157,0.0,0.0,65,0.00,,,-99.99,open2300 version1.11,2013-07-04 18:30:00,
2013-07-04 14:35:00,79.0,66.2,30.12,SSE,157,0.0,1.1,65,0.00,,,-99.99,open2300 version1.11,2013-07-04 18:35:00,
2013-07-04 14:40:00,79.0,66.2,30.12,South,180,0.4,2.7,65,0.00,,,-99.99,open2300 version1.11,2013-07-04 18:40:00,
2013-07-04 14:45:00,79.0,65.8,30.12,South,180,0.2,1.6,64,0.00,,,-99.99,open2300 version1.11,2013-07-04 18:45:00,
2013-07-04 14:50:00,79.0,65.8,30.12,South,180,0.2,2.0,64,0.00,,,-99.99,open2300 version1.11,2013-07-04 18:50:00,
2013-07-04 14:55:00,79.0,65.3,30.12,South,180,0.3,1.6,63,0.00,,,-99.99,open2300 version1.11,2013-07-04 18:55:00,
2013-07-04 15:00:00,79.2,65.9,30.12,South,189,0.7,5.4,64,0.00,,,-99.99,open2300 version1.11,2013-07-04 19:00:00,
2013-07-04 15:05:00,79.3,65.6,30.12,SSW,202,0.4,2.0,63,0.00,,,-99.99,open2300 version1.11,2013-07-04 19:05:00,
2013-07-04 15:10:00,79.5,65.8,30.11,SSW,202,0.6,2.5,63,0.00,,,-99.99,open2300 version1.11,2013-07-04 19:10:00,
2013-07-04 15:15:00,79.5,65.4,30.11,NNE,22,0.3,6.0,62,0.00,,,-99.99,open2300 version1.11,2013-07-04 19:15:00,
2013-07-04 15:20:00,79.5,65.4,30.11,SSE,160,0.8,7.8,62,0.00,,,-99.99,open2300 version1.11,2013-07-04 19:20:00,
2013-07-04 15:25:00,79.7,66.0,30.11,SSE,157,0.1,1.3,63,0.00,,,-99.99,open2300 version1.11,2013-07-04 19:25:00,
2013-07-04 15:30:00,79.9,65.7,30.11,SSE,157,0.3,2.7,62,0.00,,,-99.99,open2300 version1.11,2013-07-04 19:30:00,
2013-07-04 15:35:00,79.9,65.7,30.11,SSW,202,0.8,2.9,62,0.00,,,-99.99,open2300 version1.11,2013-07-04 19:35:00,
2013-07-04 15:40:00,79.9,65.3,30.11,SSW,202,1.4,4.0,61,0.00,,,-99.99,open2300 version1.11,2013-07-04 19:40:00,
2013-07-04 15:45:00,79.7,65.1,30.11,SSW,205,1.5,3.6,61,0.00,,,-99.99,open2300 version1.11,2013-07-04 19:45:00,
2013-07-04 15:50:00,79.7,65.1,30.11,SW,225,0.8,3.8,61,0.00,,,-99.99,open2300 version1.11,2013-07-04 19:50:00,
2013-07-04 15:55:00,79.7,65.5,30.11,SW,225,0.2,1.6,62,0.00,,,-99.99,open2300 version1.11,2013-07-04 19:55:00,
2013-07-04 16:00:00,79.9,65.7,30.11,SW,225,0.3,1.8,62,0.00,,,-99.99,open2300 version1.11,2013-07-04 20:00:00,
2013-07-04 16:05:00,79.9,65.7,30.11,SSE,157,0.5,4.7,62,0.00,,,-99.99,open2300 version1.11,2013-07-04 20:05:00,
2013-07-04 16:10:00,79.7,65.5,30.11,SSE,157,0.0,0.0,62,0.00,,,-99.99,open2300 version1.11,2013-07-04 20:10:00,
2013-07-04 16:15:00,79.7,65.5,30.11,SSE,157,0.1,1.1,62,0.00,,,-99.99,open2300 version1.11,2013-07-04 20:15:00,
2013-07-04 16:20:00,79.9,65.3,30.11,SSE,157,0.5,5.8,61,0.00,,,-99.99,open2300 version1.11,2013-07-04 20:20:00,
2013-07-04 16:25:00,80.1,65.4,30.11,SSE,157,0.0,0.0,61,0.00,,,-99.99,open2300 version1.11,2013-07-04 20:25:00,
2013-07-04 16:30:00,80.4,65.8,30.11,SSE,157,0.1,0.9,61,0.00,,,-99.99,open2300 version1.11,2013-07-04 20:30:00,
2013-07-04 16:35:00,80.4,65.8,30.11,SSE,157,0.1,2.5,61,0.00,,,-99.99,open2300 version1.11,2013-07-04 20:35:00,
2013-07-04 16:40:00,80.4,65.3,30.11,SSE,157,0.0,0.0,60,0.00,,,-99.99,open2300 version1.11,2013-07-04 20:40:00,
2013-07-04 16:45:00,80.4,65.3,30.10,SSW,202,0.6,4.0,60,0.00,,,-99.99,open2300 version1.11,2013-07-04 20:45:00,
2013-07-04 16:50:00,80.2,65.2,30.11,SSW,202,1.0,3.6,60,0.00,,,-99.99,open2300 version1.11,2013-07-04 20:50:00,
2013-07-04 16:55:00,79.9,65.3,30.11,SSW,202,0.1,1.3,61,0.00,,,-99.99,open2300 version1.11,2013-07-04 20:55:00,
2013-07-04 17:00:00,79.7,65.1,30.11,SSW,202,0.3,2.5,61,0.00,,,-99.99,open2300 version1.11,2013-07-04 21:00:00,
2013-07-04 17:05:00,79.5,64.9,30.10,SSW,202,0.2,1.6,61,0.00,,,-99.99,open2300 version1.11,2013-07-04 21:05:00,
2013-07-04 17:10:00,79.5,64.9,30.10,NNE,22,0.4,3.8,61,0.00,,,-99.99,open2300 version1.11,2013-07-04 21:10:00,
2013-07-04 17:15:00,79.3,64.8,30.10,NNE,22,0.2,2.5,61,0.00,,,-99.99,open2300 version1.11,2013-07-04 21:15:00,
2013-07-04 17:20:00,79.2,64.6,30.10,NNE,22,0.2,1.1,61,0.00,,,-99.99,open2300 version1.11,2013-07-04 21:20:00,
2013-07-04 17:25:00,79.0,64.5,30.10,SW,225,0.1,2.0,61,0.00,,,-99.99,open2300 version1.11,2013-07-04 21:25:00,
2013-07-04 17:30:00,78.6,64.1,30.10,SW,225,0.3,2.2,61,0.00,,,-99.99,open2300 version1.11,2013-07-04 21:30:00,
2013-07-04 17:35:00,78.6,64.1,30.09,SSE,157,0.0,1.1,61,0.00,,,-99.99,open2300 version1.11,2013-07-04 21:35:00,
2013-07-04 17:40:00,78.4,63.9,30.09,SSE,157,0.8,4.7,61,0.00,,,-99.99,open2300 version1.11,2013-07-04 21:40:00,
2013-07-04 17:45:00,78.4,64.4,30.09,SSE,157,0.3,2.7,62,0.00,,,-99.99,open2300 version1.11,2013-07-04 21:45:00,
2013-07-04 17:50:00,78.3,64.2,30.09,SSE,157,0.2,2.7,62,0.00,,,-99.99,open2300 version1.11,2013-07-04 21:50:00,
2013-07-04 17:55:00,78.1,64.0,30.09,SSE,157,0.1,0.9,62,0.00,,,-99.99,open2300 version1.11,2013-07-04 21:55:00,
2013-07-04 18:00:00,77.9,63.8,30.09,SSE,157,0.0,0.0,62,0.00,,,-99.99,open2300 version1.11,2013-07-04 22:00:00,
2013-07-04 18:05:00,77.7,63.7,30.09,SSE,157,0.3,5.4,62,0.00,,,-99.99,open2300 version1.11,2013-07-04 22:05:00,
2013-07-04 18:10:00,77.7,63.7,30.09,SSE,157,0.0,0.0,62,0.00,,,-99.99,open2300 version1.11,2013-07-04 22:10:00,
2013-07-04 18:15:00,77.5,63.5,30.08,SSE,157,0.0,0.0,62,0.00,,,-99.99,open2300 version1.11,2013-07-04 22:15:00,
2013-07-04 18:20:00,77.4,63.8,30.08,SSE,157,0.0,0.0,63,0.00,,,-99.99,open2300 version1.11,2013-07-04 22:20:00,
2013-07-04 18:25:00,77.4,63.8,30.08,SSE,157,0.1,0.9,63,0.00,,,-99.99,open2300 version1.11,2013-07-04 22:25:00,
2013-07-04 18:30:00,77.4,63.8,30.08,SSE,167,0.3,2.7,63,0.00,,,-99.99,open2300 version1.11,2013-07-04 22:30:00,
2013-07-04 18:35:00,77.4,63.8,30.08,South,171,0.4,4.0,63,0.00,,,-99.99,open2300 version1.11,2013-07-04 22:35:00,
2013-07-04 18:40:00,77.2,63.6,30.09,SSE,157,0.2,3.1,63,0.00,,,-99.99,open2300 version1.11,2013-07-04 22:40:00,
2013-07-04 18:45:00,77.2,63.6,30.08,SSE,157,0.0,0.0,63,0.00,,,-99.99,open2300 version1.11,2013-07-04 22:45:00,
2013-07-04 18:50:00,77.0,63.9,30.08,SSE,157,0.1,0.9,64,0.00,,,-99.99,open2300 version1.11,2013-07-04 22:50:00,
2013-07-04 18:55:00,76.8,63.7,30.08,SSE,157,0.1,1.8,64,0.00,,,-99.99,open2300 version1.11,2013-07-04 22:55:00,
2013-07-04 19:00:00,76.8,63.7,30.08,SSE,157,0.0,0.0,64,0.00,,,-99.99,open2300 version1.11,2013-07-04 23:00:00,
2013-07-04 19:05:00,76.6,64.0,30.08,SSE,157,0.1,1.6,65,0.00,,,-99.99,open2300 version1.11,2013-07-04 23:05:00,
2013-07-04 19:10:00,76.6,64.0,30.08,SSE,157,0.0,0.5,65,0.00,,,-99.99,open2300 version1.11,2013-07-04 23:10:00,
2013-07-04 19:15:00,76.5,63.8,30.08,SSE,157,0.1,1.3,65,0.00,,,-99.99,open2300 version1.11,2013-07-04 23:15:00,
2013-07-04 19:20:00,76.5,64.2,30.08,SSE,157,0.0,0.0,66,0.00,,,-99.99,open2300 version1.11,2013-07-04 23:20:00,
2013-07-04 19:25:00,76.3,64.1,30.08,SSE,157,0.0,0.0,66,0.00,,,-99.99,open2300 version1.11,2013-07-04 23:25:00,
2013-07-04 19:30:00,76.3,64.1,30.08,SSE,157,0.0,0.0,66,0.00,,,-99.99,open2300 version1.11,2013-07-04 23:30:00,
2013-07-04 19:35:00,76.1,63.9,30.08,SSE,157,0.0,0.0,66,0.00,,,-99.99,open2300 version1.11,2013-07-04 23:35:00,
2013-07-04 19:40:00,76.1,64.3,30.08,SSE,157,0.0,0.0,67,0.00,,,-99.99,open2300 version1.11,2013-07-04 23:40:00,
2013-07-04 19:45:00,75.9,64.6,30.08,SSE,157,0.0,0.0,68,0.00,,,-99.99,open2300 version1.11,2013-07-04 23:45:00,
2013-07-04 19:50:00,75.7,64.0,30.08,SSE,157,0.0,0.0,67,0.00,,,-99.99,open2300 version1.11,2013-07-04 23:50:00,
2013-07-04 19:55:00,75.6,64.2,30.08,SSE,157,0.0,0.0,68,0.00,,,-99.99,open2300 version1.11,2013-07-04 23:55:00,
2013-07-04 20:00:00,75.6,64.2,30.08,SSE,157,0.0,0.0,68,0.00,,,-99.99,open2300 version1.11,2013-07-05 00:00:00,
2013-07-04 20:05:00,75.4,64.1,30.08,SSE,157,0.0,0.0,68,0.00,,,-99.99,open2300 version1.11,2013-07-05 00:05:00,
2013-07-04 20:10:00,75.4,64.1,30.08,SSE,157,0.0,0.0,68,0.00,,,-99.99,open2300 version1.11,2013-07-05 00:10:00,
2013-07-04 20:15:00,75.4,64.1,30.08,SSE,157,0.0,0.0,68,0.00,,,-99.99,open2300 version1.11,2013-07-05 00:15:00,
2013-07-04 20:20:00,75.0,63.7,30.09,SSE,157,0.0,0.0,68,0.00,,,-99.99,open2300 version1.11,2013-07-05 00:20:00,
2013-07-04 20:25:00,75.0,64.2,30.09,SSE,157,0.0,0.0,69,0.00,,,-99.99,open2300 version1.11,2013-07-05 00:25:00,
2013-07-04 20:30:00,74.8,64.0,30.09,SSE,157,0.0,0.0,69,0.00,,,-99.99,open2300 version1.11,2013-07-05 00:30:00,
2013-07-04 20:35:00,74.5,64.1,30.09,SSE,157,0.0,0.0,70,0.00,,,-99.99,open2300 version1.11,2013-07-05 00:35:00,
2013-07-04 20:40:00,74.1,63.8,30.09,SSE,157,0.0,0.0,70,0.00,,,-99.99,open2300 version1.11,2013-07-05 00:40:00,
2013-07-04 20:45:00,73.9,63.6,30.08,SSE,157,0.0,0.0,70,0.00,,,-99.99,open2300 version1.11,2013-07-05 00:45:00,
2013-07-04 20:50:00,73.6,63.3,30.08,SSE,157,0.0,0.0,70,0.00,,,-99.99,open2300 version1.11,2013-07-05 00:50:00,
2013-07-04 20:55:00,73.6,63.3,30.08,SSE,157,0.0,0.0,70,0.00,,,-99.99,open2300 version1.11,2013-07-05 00:55:00,
2013-07-04 21:00:00,73.2,63.0,30.08,SSE,157,0.0,0.0,70,0.00,,,-99.99,open2300 version1.11,2013-07-05 01:00:00,
2013-07-04 21:05:00,73.0,62.8,30.08,SSE,157,0.0,0.0,70,0.00,,,-99.99,open2300 version1.11,2013-07-05 01:05:00,
2013-07-04 21:10:00,72.7,62.8,30.08,SSE,157,0.0,0.0,71,0.00,,,-99.99,open2300 version1.11,2013-07-05 01:10:00,
2013-07-04 21:15:00,72.5,62.2,30.08,SSE,157,0.0,0.0,70,0.00,,,-99.99,open2300 version1.11,2013-07-05 01:15:00,
2013-07-04 21:20:00,72.1,62.3,30.09,SSE,157,0.0,0.0,71,0.00,,,-99.99,open2300 version1.11,2013-07-05 01:20:00,
2013-07-04 21:25:00,72.0,62.1,30.09,SSE,157,0.0,0.0,71,0.00,,,-99.99,open2300 version1.11,2013-07-05 01:25:00,
2013-07-04 21:30:00,71.8,61.9,30.09,SSE,157,0.0,0.0,71,0.00,,,-99.99,open2300 version1.11,2013-07-05 01:30:00,
2013-07-04 21:35:00,71.4,61.5,30.09,SSE,157,0.0,0.0,71,0.00,,,-99.99,open2300 version1.11,2013-07-05 01:35:00,
2013-07-04 21:40:00,71.2,61.7,30.09,SSE,157,0.0,0.0,72,0.00,,,-99.99,open2300 version1.11,2013-07-05 01:40:00,
2013-07-04 21:45:00,71.2,61.7,30.09,SSE,157,0.0,0.0,72,0.00,,,-99.99,open2300 version1.11,2013-07-05 01:45:00,
2013-07-04 21:50:00,70.9,61.4,30.09,SSE,157,0.0,0.0,72,0.00,,,-99.99,open2300 version1.11,2013-07-05 01:50:00,
2013-07-04 21:55:00,70.7,61.6,30.09,SSE,157,0.0,0.0,73,0.00,,,-99.99,open2300 version1.11,2013-07-05 01:55:00,
2013-07-04 22:00:00,70.5,61.4,30.09,SSE,157,0.0,0.0,73,0.00,,,-99.99,open2300 version1.11,2013-07-05 02:00:00,
2013-07-04 22:05:00,70.3,61.2,30.11,SSE,157,0.0,0.0,73,0.00,,,-99.99,open2300 version1.11,2013-07-05 02:05:00,
2013-07-04 22:10:00,70.2,61.8,30.11,SSE,157,0.0,0.0,75,0.00,,,-99.99,open2300 version1.11,2013-07-05 02:10:00,
2013-07-04 22:15:00,69.8,61.0,30.11,SSE,157,0.0,0.0,74,0.00,,,-99.99,open2300 version1.11,2013-07-05 02:15:00,
2013-07-04 22:20:00,69.6,61.3,30.11,SSE,157,0.0,0.0,75,0.00,,,-99.99,open2300 version1.11,2013-07-05 02:20:00,
2013-07-04 22:25:00,69.4,61.1,30.11,SSE,157,0.0,0.0,75,0.00,,,-99.99,open2300 version1.11,2013-07-05 02:25:00,
2013-07-04 22:30:00,69.3,60.9,30.11,SSE,157,0.0,0.0,75,0.00,,,-99.99,open2300 version1.11,2013-07-05 02:30:00,
2013-07-04 22:35:00,69.1,61.2,30.11,SSE,157,0.0,0.0,76,0.00,,,-99.99,open2300 version1.11,2013-07-05 02:35:00,
2013-07-04 22:40:00,68.9,61.0,30.11,SSE,157,0.0,0.0,76,0.00,,,-99.99,open2300 version1.11,2013-07-05 02:40:00,
2013-07-04 22:45:00,68.7,61.2,30.11,SSE,157,0.0,0.0,77,0.00,,,-99.99,open2300 version1.11,2013-07-05 02:45:00,
2013-07-04 22:55:00,68.5,61.0,30.11,SSE,157,0.0,0.0,77,0.00,,,-99.99,open2300 version1.11,2013-07-05 02:55:00,
2013-07-04 23:00:00,68.5,61.0,30.11,SSE,157,0.0,0.0,77,0.00,,,-99.99,open2300 version1.11,2013-07-05 03:00:00,
2013-07-04 23:05:00,68.4,60.9,30.11,SSE,157,0.0,0.0,77,0.00,,,-99.99,open2300 version1.11,2013-07-05 03:05:00,
2013-07-04 23:10:00,68.2,60.7,30.11,SSE,157,0.0,0.0,77,0.00,,,-99.99,open2300 version1.11,2013-07-05 03:10:00,
2013-07-04 23:15:00,68.2,60.7,30.11,SSE,157,0.0,0.0,77,0.00,,,-99.99,open2300 version1.11,2013-07-05 03:15:00,
2013-07-04 23:20:00,68.2,61.1,30.11,SSE,157,0.0,0.0,78,0.00,,,-99.99,open2300 version1.11,2013-07-05 03:20:00,
2013-07-04 23:25:00,67.8,60.8,30.11,SSE,157,0.0,0.0,78,0.00,,,-99.99,open2300 version1.11,2013-07-05 03:25:00,
2013-07-04 23:30:00,67.8,60.8,30.11,SSE,157,0.0,0.0,78,0.00,,,-99.99,open2300 version1.11,2013-07-05 03:30:00,
2013-07-04 23:35:00,67.8,60.8,30.11,SSE,157,0.0,0.0,78,0.00,,,-99.99,open2300 version1.11,2013-07-05 03:35:00,
2013-07-04 23:40:00,67.8,60.8,30.11,SSE,157,0.0,0.0,78,0.00,,,-99.99,open2300 version1.11,2013-07-05 03:40:00,
2013-07-04 23:45:00,67.6,60.6,30.11,SSE,157,0.0,0.0,78,0.00,,,-99.99,open2300 version1.11,2013-07-05 03:45:00,
2013-07-04 23:50:00,67.6,60.6,30.11,SSE,157,0.0,0.0,78,0.00,,,-99.99,open2300 version1.11,2013-07-05 03:50:00,
2013-07-04 23:55:00,67.3,60.2,30.10,SSE,157,0.0,0.0,78,0.00,,,-99.99,open2300 version1.11,2013-07-05 03:55:00,